IRNSS-1G

Last updated on Aug. 14, 2020, 5:30 a.m. UTC

1 41469U 16027A   20226.73313170 -.00000334  00000-0  00000+0 0  9997
2 41469   2.1287 217.2337 0006216 275.0134 223.6693  1.00269823 15792
UTC
Height (km)
Latitude
Longitude
Inclination
Orbital Period
UTC large
Height (km)
Speed (km/s)
/
Latitude / Longitude
Inclination (degrees)
Orbital Period (minutes)
Azimuth
Elevation
Range (km)
Doppler Factor
iOS Compass Heading
iOS Angle

Next 30 passes for location: Hong Kong

Rise time Rise Azimuth (degrees) Set time Set Azimuth (degrees) Duration Max altitude (degrees)

No matching passes for this satellites